User: anonymous   Login
Location: Laguna de la Cañada del Gallo
(40.3974°N, 5.2096°W)
Time: 16:10:46
(UTC+00:00)
Language:

Okean-O - Orbit

View from above orbital plane
View from above orbital plane
View from above satellite
View from above satellite

Ground track
Ground track

The orbit data is extracted from the following two-line orbital elements,

1 25860U 99039A   24172.73703446  .00000946  00000-0  13678-3 0  9998
2 25860  98.0356 225.0995 0001269 117.2042 242.9298 14.78500131341689
Epoch (UTC): 20 June 2024 17:41:19
Eccentricity: 0.0001269
inclination: 98.0356°
perigee height: 633 km
apogee height: 635 km
right ascension of ascending node: 225.0995°
argument of perigee: 117.2042°
revolutions per day: 14.78500131
mean anomaly at epoch: 242.9298°
orbit number at epoch: 34168

The dashed part of the orbit path shows where the satellite is in the earth's shadow,  

DLR